This is the latest recevied weather packets stored in our database for station/object KB9HUO. If no packets are shown the sender has not sent any weather packets the latest 10 day(s).
| Time | Temp. | Humidity | Pressure | Rain* | Wind** | Luminosity | Snow |
|---|---|---|---|---|---|---|---|
| 1787861241 | 28.89° C | 59% | 1016.2 hPa | 0 mm | - | 82 W/m² | - |
| 1787860941 | 28.33° C | 54% | 1016.2 hPa | 0 mm | - | 70 W/m² | - |
| 1787860635 | 28.89° C | 56% | 1016.5 hPa | 0 mm | - | 70 W/m² | - |
| 1787860330 | 28.89° C | 58% | 1016.3 hPa | 0 mm | - | 65 W/m² | - |
| 1787860025 | 28.89° C | 58% | 1016.4 hPa | 0 mm | - | 74 W/m² | - |
| 1787859721 | 28.89° C | 59% | 1016.4 hPa | 0 mm | - | 81 W/m² | - |
| 1787859414 | 28.89° C | 59% | 1016.5 hPa | 0 mm | - | 74 W/m² | - |
| 1787859109 | 28.89° C | 57% | 1016.5 hPa | 0 mm | - | 79 W/m² | - |
| 1787858807 | 29.44° C | 52% | 1016.6 hPa | 0 mm | - | 102 W/m² | - |
| 1787858502 | 29.44° C | 60% | 1016.6 hPa | 0 mm | - | 109 W/m² | - |
| 1787858201 | 29.44° C | 59% | 1016.4 hPa | 0 mm | - | 278 W/m² | - |
| 1787857897 | 28.89° C | 59% | 1016.6 hPa | 0 mm | - | 379 W/m² | - |
| 1787857593 | 28.89° C | 56% | 1016.4 hPa | 0 mm | - | 450 W/m² | - |
| 1787857293 | 29.44° C | 57% | 1016.4 hPa | 0 mm | - | 124 W/m² | - |
| 1787856992 | 30° C | 62% | 1016.5 hPa | 0 mm | - | 450 W/m² | - |
| 1787856691 | 29.44° C | 59% | 1016.5 hPa | 0 mm | - | 705 W/m² | - |
| 1787856391 | 28.89° C | 64% | 1016.4 hPa | 0 mm | - | 679 W/m² | - |
| 1787856087 | 28.33° C | 63% | 1016.6 hPa | 0 mm | - | 700 W/m² | - |
| 1787855781 | 27.78° C | 63% | 1016.6 hPa | 0 mm | - | 315 W/m² | - |
| 1787855477 | 27.22° C | 67% | 1016.7 hPa | 0 mm | - | 162 W/m² | - |
| 1787855172 | 27.22° C | 67% | 1016.8 hPa | 0 mm | - | 434 W/m² | - |
| 1787854867 | 27.78° C | 66% | 1016.7 hPa | 0 mm | - | 102 W/m² | - |
| 1787854566 | 28.33° C | 64% | 1016.7 hPa | 0 mm | - | 141 W/m² | - |
| 1787854261 | 27.78° C | 64% | 1016.8 hPa | 0 mm | - | 359 W/m² | - |
| 1787853956 | 28.33° C | 63% | 1016.9 hPa | 0 mm | - | 122 W/m² | - |
* Rain latest hour (hover to see other rain measurements)
** Current wind speed in m/s (hover to see current wind gust speed)